Home   Weather   Hollywood   Past weeks

Flag for USA Past Weather in Hollywood, California, USA — Yesterday and Last 2 Weeks

Now
58 °F

Sunny.


Feels Like: 57 °F
Forecast: 48 / 60 °F
Wind: 6 mph from West

Location: Bob Hope Airport

Current Time: Jan 21, 2017 at 1:44:02 pm

Latest Report: Jan 21, 2017 at 12:53 pm


Visibility: 10 mi

Pressure: 29.90 "Hg

Humidity: 43%

Dew Point: 35 °F

Location of HollywoodLocation

Past Weather in Hollywood — Graph

°F

Hollywood Temperature Yesterday

Maximum temperature yesterday: 56 °F (at 2:53 pm)
Minimum temperature yesterday: 49 °F (at 6:07 am)
Average temperature yesterday: 51 °F

High & Low Weather Summary for the Past Weeks

 TemperatureHumidityPressure
High74 °F (Jan 8, 12:53 pm)97% (Jan 10, 10:53 am)30.20 "Hg (Jan 10, 10:53 am)
Low41 °F (Jan 17, 5:53 am)26% (Jan 8, 4:53 pm)29.39 "Hg (Jan 20, 2:53 pm)
Average54 °F74%29.99 "Hg
* Reported Jan 6 11:53 am — Jan 21 11:53 am, Hollywood, Weather by CustomWeather, © 2017

Note: Actual official high and low records may vary slightly from our data, if they occured in-between our weather recording intervals... More about our weather records

Advertising

Hollywood Weather History for the Previous 24 Hours

Scroll right to see more
 ConditionsComfort  
Time TempWeatherWind HumidityBarometerVisibility
11:53 am
Sat, Jan 21
56 °FSunny.7 mph44%29.90 "Hg10 mi
10:53 am55 °FSunny.10 mph47%29.88 "Hg10 mi
9:53 am52 °FSunny.9 mph55%29.88 "Hg10 mi
8:53 am48 °FSunny.6 mph66%29.85 "Hg10 mi
7:53 am44 °FSunny.3 mph76%29.82 "Hg10 mi
6:53 am42 °FClear.9 mph82%29.78 "Hg10 mi
5:53 am43 °FClear.5 mph79%29.73 "Hg10 mi
4:53 am43 °FClear.6 mph82%29.69 "Hg10 mi
4:00 am44 °FClear.5 mph82%29.70 "Hg10 mi
2:53 am48 °FPassing clouds.5 mph71%29.64 "Hg10 mi
2:25 am48 °FMostly cloudy.8 mph71%29.65 "Hg10 mi
1:53 am48 °FPassing clouds.No wind71%29.62 "Hg10 mi
12:53 am48 °FClear.9 mph71%29.58 "Hg10 mi
11:53 pm
Fri, Jan 20
49 °FOvercast.3 mph74%29.57 "Hg10 mi
10:53 pm50 °FPassing clouds.6 mph68%29.55 "Hg10 mi
9:53 pm50 °FMostly cloudy.5 mph68%29.54 "Hg10 mi
8:53 pm51 °FPassing clouds.6 mph71%29.52 "Hg10 mi
7:53 pm51 °FMostly cloudy.6 mph74%29.49 "Hg10 mi
7:31 pm51 °FOvercast.3 mph74%29.50 "Hg10 mi
6:53 pm51 °FMostly cloudy.8 mph74%29.47 "Hg10 mi
5:53 pm51 °FOvercast.15 mph71%29.44 "Hg10 mi
5:33 pm52 °FPassing clouds.13 mph66%29.46 "Hg10 mi
4:53 pm54 °FScattered clouds.17 mph62%29.43 "Hg10 mi
3:53 pm55 °FPartly sunny.16 mph62%29.40 "Hg10 mi
2:53 pm56 °FBroken clouds.6 mph75%29.39 "Hg10 mi
1:53 pm54 °FCloudy.9 mph86%29.41 "Hg10 mi
1:18 pm52 °FRain. Fog.3 mph93%29.45 "Hg2 mi
Weather by CustomWeather, © 2017

See weather overviewHow to use our weather pages